This demonstration page uses our WeatherBlox Daily Observations layout. Learn more.

Left ArrowRight Arrow

Hourly Observations for July 2, 2016

Temp ( °F °C ) Dew Point ( °F °C ) Humidity (%) Winds ( mph kmh ) Pressure ( in mb ) Visibility ( mi km ) Precip ( " mm )
12:53 am 00:53 Clear 74 23.3 65 18.3 74 74 Calm 29.98 1015 10 16 0.00 0.00
1:53 am 01:53 Clear 74 23.3 66 18.9 76 76 Calm 29.98 1015 10 16 0.00 0.00
2:53 am 02:53 Clear 72 22.2 65 18.3 79 79 Calm 29.97 1015 10 16 0.00 0.00
3:53 am 03:53 Clear 71 21.7 65 18.3 81 81 N 3 6 29.97 1015 10 16 0.00 0.00
4:53 am 04:53 Clear 70 21.1 65 18.3 84 84 Calm 29.97 1015 10 16 0.00 0.00
5:53 am 05:53 Clear 70 21.1 65 18.3 84 84 Calm 29.99 1016 10 16 0.00 0.00
6:53 am 06:53 Sunny 72 22.2 65 18.3 79 79 Calm 30.00 1016 10 16 0.00 0.00
7:53 am 07:53 Sunny 77 25 65 18.3 66 66 Calm 30.02 1017 10 16 0.00 0.00
8:53 am 08:53 Sunny 79 26.1 66 18.9 65 65 Calm 30.04 1017 10 16 0.00 0.00
9:53 am 09:53 Sunny 84 28.9 67 19.4 57 57 Calm 30.05 1018 10 16 0.00 0.00
10:53 am 10:53 Sunny 88 31.1 63 17.2 43 43 Calm 30.04 1017 10 16 0.00 0.00
11:53 am 11:53 Mostly Sunny 91 32.8 65 18.3 42 42 VRB 5 7 30.03 1017 10 16 0.00 0.00
12:53 pm 12:53 Mostly Sunny 91 32.8 63 17.2 39 39 WNW 12 19 30.02 1017 10 16 0.00 0.00
1:53 pm 13:53 Mostly Sunny 94 34.4 64 17.8 37 37 NW 8 13 30.00 1016 10 16 0.00 0.00
2:53 pm 14:53 Mostly Cloudy 92 33.3 61 16.1 36 36 VRB 5 7 29.99 1016 10 16 0.00 0.00
3:53 pm 15:53 Mostly Sunny 96 35.6 60 15.6 30 30 WNW 10 17 29.97 1015 10 16 0.00 0.00
4:53 pm 16:53 Mostly Sunny 97 36.1 59 15 28 28 undefined N/A 29.96 1015 10 16 0.00 0.00
5:53 pm 17:53 Partly Cloudy 95 35 60 15.6 31 31 NW 6 9 29.95 1014 10 16 0.00 0.00
6:53 pm 18:53 Sunny 95 35 60 15.6 31 31 NNW 7 11 29.95 1014 10 16 0.00 0.00
7:53 pm 19:53 Sunny 93 33.9 61 16.1 34 34 WNW 7 11 29.96 1015 10 16 0.00 0.00
8:53 pm 20:53 Clear 87 30.6 65 18.3 48 48 Calm 29.97 1015 10 16 0.00 0.00
9:53 pm 21:53 Mostly Clear 82 27.8 66 18.9 58 58 Calm 29.99 1016 10 16 0.00 0.00
10:53 pm 22:53 Clear 78 25.6 67 19.4 69 69 Calm 30.00 1016 10 16 0.00 0.00
11:53 pm 23:53 Clear 77 25 66 18.9 69 69 Calm 30.00 1016 10 16 0.00 0.00

Powered by AerisWeather